This is the latest recevied weather packets stored in our database for station/object S54L-12. If no packets are shown the sender has not sent any weather packets the latest 1 day(s).
| Time | Temp. | Humidity | Pressure | Rain* | Wind** | Luminosity | Snow |
|---|---|---|---|---|---|---|---|
| 1778040940 | 10.56° C | 98% | 918 hPa | - | - | - | - |
| 1778040040 | 10.56° C | 99% | 917.9 hPa | - | - | - | - |
| 1778039140 | 10.56° C | 100% | 918 hPa | - | - | - | - |
| 1778038240 | 10.56° C | 100% | 917.9 hPa | - | - | - | - |
| 1778037340 | 10.56° C | 99% | 918.1 hPa | - | - | - | - |
| 1778036440 | 10.56° C | 100% | 918.1 hPa | - | - | - | - |
| 1778035540 | 10.56° C | 100% | 918.1 hPa | - | - | - | - |
| 1778034640 | 10.56° C | 99% | 918.3 hPa | - | - | - | - |
| 1778033740 | 10.56° C | 98% | 918.4 hPa | - | - | - | - |
| 1778031940 | 10.56° C | 96% | 918.4 hPa | - | - | - | - |
| 1778031040 | 10.56° C | 96% | 918.4 hPa | - | - | - | - |
| 1778030140 | 10.56° C | 97% | 918.2 hPa | - | - | - | - |
| 1778029240 | 10.56° C | 98% | 918.2 hPa | - | - | - | - |
| 1778028340 | 10.56° C | 98% | 918.1 hPa | - | - | - | - |
| 1778027440 | 10.56° C | 98% | 918.1 hPa | - | - | - | - |
| 1778026540 | 10.56° C | 98% | 918.1 hPa | - | - | - | - |
| 1778024740 | 10.56° C | 99% | 918.4 hPa | - | - | - | - |
| 1778023840 | 10.56° C | 98% | 918.4 hPa | - | - | - | - |
| 1778013039 | 10° C | 97% | 919.2 hPa | - | - | - | - |
| 1778009441 | 10° C | 94% | 919.2 hPa | - | - | - | - |
| 1778008541 | 10° C | 96% | 919.1 hPa | - | - | - | - |
| 1778007641 | 10.56° C | 95% | 919 hPa | - | - | - | - |
* Rain since midnight (hover to see other rain measurements)
** Current wind speed in m/s (hover to see current wind gust speed)